Location: Eaton Estates
(41.3089°N, 82.0057°W)
Time: 13:19:39
(UTC+00:00)

Cosmos 2369 Rocket - Pass Details

Date: 17 June 2021
Orbit: 827 x 854 km, 71.0° (Epoch: 30 July)

Event Time Altitude Azimuth Distance (km) Brightness Sun altitude
Rises 08:04:08 0° 323° (NW) 3,430 5.6 -16.0°
Reaches altitude 10° 08:07:02 10° 310° (NW) 2,489 4.7 -15.7°
Maximum altitude 08:11:27 24° 259° (W) 1,714 3.4 -15.1°
Enters shadow 08:12:59 21° 236° (SW) 1,822 3.4 -15.0°
